Gerald R. Ford International Airport Grand Rapids US
ICAO: KGRR
IATA: GRR
Category: Medium
Scheduled Services: Yes

Elevation: 794 ft
TransAlt. 18000 ft.

Airport Communications:
GRAND RAPIDS APP/DEP:124.6
ATIS:127.1
CLNC DEL:119.3
CTAF:135.65
GND:121.8
LANSING RDO:115.95
GRAND RAPIDS TWR:135.65
UNICOM:122.95

KGRR Zoom In..

If you have problems with the map follow the link
https://www.worldairports.se/pages/airport.php?
ICAO=KGRR

Runways:

(A) RW 08L length 5000 ft width 100 ft
---- / hdg 85

(B) RW 08R length 10000 ft width 150 ft
ILS 108.30 / hdg 85

(C) RW 17 length 8501 ft width 150 ft
---- / hdg 175

(D) RW 26L length 10000 ft width 150 ft
ILS 109.70 / hdg 265

(E) RW 26R length 5000 ft width 100 ft
---- / hdg 265

(F) RW 35 length 8501 ft width 150 ft
ILS 111.90 / hdg 355

Location; KGRR
Day. 14 / Time. 15.53 Zulu
* Altimeter: 29.66
* Temperature: 00° c. 32°f.
* Wind from: 320° Speed 05 kn.
Dewpoint: -02° c.
Visibility: 3 Statute Miles.
Clouds: Overcast 500 ft.
Conditions: Mist.

KGRR 141553Z 32005KT 3SM BR OVC005 00/M02 A2966 RMK AO2 SLP052 T00001017 $


Wind From 320°
Speed 05 kn.

 
 
jpsmedia worldairports.se 2019   terms of use